Location: Namasale
(1.5000°N, 32.6167°E)
Time: 17:52:14
(UTC+00:00)

Courier 1B - Pass Details

Date: 27 April 2021
Orbit: 962 x 1209 km, 28.3° (Epoch: 09 May)

Event Time Altitude Azimuth Distance (km) Brightness Sun altitude
Rises 01:35:40 0° 219° (SW) 4,092 - -31.4°
Reaches altitude 10° 01:39:04 10° 207° (SSW) 3,140 - -30.6°
Exits shadow 01:43:02 23° 179° (S) 2,323 9.3 -29.6°
Maximum altitude 01:45:24 26° 153° (SSE) 2,158 9.3 -29.1°
Drops below altitude 10° 01:51:40 10° 99° (E) 3,112 10.9 -27.6°
Sets 01:55:00 0° 87° (E) 4,049 11.9 -26.8°
